Weather History for Akron, OH

Change the Weather History Date:

Monday, January 20, 2014

  Actual Average (KCAK) Record (KCAK)
Temperature  
Mean Temperature 27 °F 26 °F  
Max Temperature 35 °F 33 °F 62 °F (1974)
Min Temperature 19 °F 19 °F -24 °F (1985)
Degree Days  
Heating Degree Days 38 39  
Month to date heating degree days 778  
Since 1 July heating degree days 3108  
Cooling Degree Days 0 0  
Month to date cooling degree days 0  
Year to date cooling degree days 0  
Moisture  
Dew Point 21 °F    
Average Humidity 77    
Maximum Humidity 86    
Minimum Humidity 64    
Precipitation  
Precipitation 0.00 in 0.08 in 0.75 in (1954)
Month to date precipitation 1.71  
Year to date precipitation 1.71  
Snow  
Snow 0.00 in 0.40 in - ()
Month to date snowfall 8.0  
Since 1 July snowfall 21.6  
Snow Depth -    
Sea Level Pressure  
Sea Level Pressure 29.79 in    
Wind  
Wind Speed 11 mph (NNW)    
Max Wind Speed 15 mph    
Max Gust Speed 21 mph    
Visibility 9 miles    
Events Snow    
T = Trace of Precipitation, MM = Missing Value Source: NWS Daily Summary

Daily Weather History Graph

Daily Weather History Graph

Search for Another Location

Airport:

Trip Planner

Search our weather history database for the weather conditions in past years. The results will help you decide how hot, cold, wet, or windy it might be!

Date:

Astronomy

Jan. 20, 2014 Rise Set
Actual Time 7:46 AM EST 5:28 PM EST
Civil Twilight 7:16 AM EST 5:58 PM EST
Nautical Twilight 6:42 AM EST 6:31 PM EST
Astronomical Twilight 6:09 AM EST 7:04 PM EST
Moon 10:04 PM EST (1/20) 9:42 AM EST (1/20)
Length of Visible Light 10h 41m
Length of Day
9h 42m
Waning Gibbous, 83% of the Moon is Illuminated
Jan 20
Waning Gibbous
Jan 24
Last Quarter
Jan 30
New
Feb 6
First Quarter
Feb 14
Full

Hourly Weather History & Observations

Time (EST) Temp. Windchill Dew Point Humidity Pressure Visibility Wind Dir Wind Speed Gust Speed Precip Events Conditions
12:54 AM 32.0 °F - 21.9 °F 66% 29.63 in - North - - N/A   Unknown
1:54 AM - - - N/A% 29.58 in - North - - N/A   Unknown
2:54 AM - - - N/A% 29.57 in - North - - N/A   Unknown
3:54 AM - - - N/A% 29.57 in - North - - N/A   Unknown
4:54 AM 34.0 °F 24.6 °F 23.0 °F 64% 29.60 in 10.0 mi SW 13.8 mph 20.7 mph N/A   Unknown
5:54 AM 34.0 °F 25.5 °F 24.1 °F 67% 29.62 in - WSW 11.5 mph - N/A   Unknown
6:39 AM 33.8 °F 25.3 °F 24.8 °F 70% 29.60 in 10.0 mi WSW 11.5 mph - N/A   Overcast
6:51 AM 33.8 °F - 24.8 °F 70% 29.61 in - North - - N/A   Unknown
6:54 AM 34.0 °F - 24.1 °F 67% 29.64 in - North - - N/A   Unknown
7:54 AM 35.1 °F 26.4 °F - N/A% 29.65 in - West 12.7 mph - N/A   Unknown
8:54 AM 35.1 °F 25.9 °F 27.0 °F 72% 29.68 in - WNW 13.8 mph - N/A   Unknown
9:23 AM 33.8 °F 23.9 °F 26.6 °F 75% 29.67 in 10.0 mi WNW 15.0 mph 20.7 mph N/A   Overcast
9:54 AM 33.1 °F 23.0 °F 27.0 °F 78% 29.73 in 8.0 mi WNW 15.0 mph 20.7 mph N/A   Overcast
10:23 AM 32.0 °F 23.0 °F 26.6 °F 80% 29.72 in 6.0 mi WNW 11.5 mph - N/A   Haze
10:54 AM 32.0 °F 22.5 °F 26.1 °F 79% 29.74 in 7.0 mi NW 12.7 mph - N/A   Overcast
11:12 AM 32.0 °F 23.0 °F 26.6 °F 80% 29.74 in 8.0 mi NW 11.5 mph - N/A   Overcast
11:54 AM 32.0 °F 22.5 °F 26.1 °F 79% 29.75 in 8.0 mi WNW 12.7 mph - N/A   Overcast
12:14 PM 30.2 °F 20.8 °F 24.8 °F 80% 29.75 in 6.0 mi North 11.5 mph - N/A   Haze
12:16 PM 30.2 °F 20.8 °F 24.8 °F 80% 29.75 in 6.0 mi North 11.5 mph - N/A   Haze
12:25 PM 30.2 °F 24.3 °F 24.8 °F 80% 29.75 in 8.0 mi North 5.8 mph - N/A   Overcast
12:54 PM 28.9 °F 21.1 °F 25.0 °F 85% 29.79 in 9.0 mi NNW 8.1 mph - N/A   Overcast
1:54 PM 28.9 °F 21.1 °F 25.0 °F 85% 29.78 in 10.0 mi NNW 8.1 mph - N/A   Overcast
2:54 PM 26.1 °F 18.4 °F 21.9 °F 84% 29.82 in 6.0 mi NW 6.9 mph - N/A   Overcast
3:11 PM 26.6 °F 19.1 °F 21.2 °F 80% 29.82 in 8.0 mi NNW 6.9 mph - N/A   Overcast
3:21 PM 26.6 °F 19.1 °F 21.2 °F 80% 29.82 in 6.0 mi NNW 6.9 mph - 0.00 in Snow Light Snow
3:38 PM 26.6 °F 16.2 °F 21.2 °F 80% 29.83 in 7.0 mi NNW 11.5 mph - 0.00 in Snow Light Snow
3:54 PM 26.1 °F 16.2 °F 21.0 °F 81% 29.84 in 9.0 mi NW 10.4 mph - 0.00 in   Overcast
4:01 PM 26.6 °F 15.7 °F 19.4 °F 74% 29.84 in 9.0 mi NNW 12.7 mph - N/A   Overcast
4:09 PM 26.6 °F 17.5 °F 19.4 °F 74% 29.85 in 10.0 mi NNW 9.2 mph - N/A   Overcast
4:54 PM 26.1 °F 18.4 °F 19.9 °F 78% 29.90 in 10.0 mi North 6.9 mph - N/A   Overcast
5:54 PM 25.0 °F 16.3 °F 18.0 °F 75% 29.91 in 10.0 mi NW 8.1 mph - N/A   Overcast
6:54 PM 24.1 °F 17.0 °F 18.0 °F 77% 29.94 in 10.0 mi North 5.8 mph - N/A   Overcast
7:54 PM 21.9 °F 15.7 °F 16.0 °F 78% 29.95 in 10.0 mi NE 4.6 mph - N/A   Overcast
8:17 PM 19.4 °F 12.8 °F 15.8 °F 86% 29.93 in 10.0 mi North 4.6 mph - N/A   Scattered Clouds
8:29 PM 21.2 °F 16.4 °F 15.8 °F 80% 29.93 in 10.0 mi NNE 3.5 mph - N/A   Mostly Cloudy
8:54 PM 21.0 °F 14.6 °F 14.0 °F 74% 29.96 in 10.0 mi ENE 4.6 mph - N/A   Mostly Cloudy
9:02 PM 19.4 °F 12.8 °F 14.0 °F 80% 29.92 in 10.0 mi ENE 4.6 mph - N/A   Scattered Clouds
9:54 PM 21.9 °F 13.4 °F 15.1 °F 75% 29.96 in 10.0 mi NE 6.9 mph - N/A   Overcast
10:02 PM 21.2 °F 13.6 °F 15.8 °F 80% 29.91 in 10.0 mi NE 5.8 mph - N/A   Overcast
10:14 PM 21.2 °F 13.6 °F 15.8 °F 80% 29.91 in 10.0 mi NE 5.8 mph - N/A   Overcast
10:21 PM 21.2 °F 12.6 °F 15.8 °F 80% 29.92 in 10.0 mi NE 6.9 mph - N/A   Overcast
10:54 PM 21.0 °F 11.4 °F 15.1 °F 78% 29.95 in 10.0 mi NNE 8.1 mph - N/A   Overcast
11:54 PM 19.9 °F 10.1 °F 14.0 °F 78% 29.95 in 10.0 mi NE 8.1 mph - N/A   Overcast